Вернуться в каталог

HULIANWANG DIGUI-97

АктивенСвязьLEO
NORAD 66413·PAYLOAD·🇨🇳 China

Запущен Nov 10, 2025 с Wenchang Space Launch Site

Loading…

Ближайшие Пролёты (ближайшие 24 часа)

TLE

СвежийSource: Space-Track

Эпоха: Sep 14, 2026, 11:26 UTC

1 66413U 25258B   26257.47678061 -.00000085  00000-0  84916-4 0  9999
2 66413  50.0032 335.6084 0000201  94.8442 265.2453 13.29330070 41601

Отслеживайте HULIANWANG DIGUI-97 в реальном времени с AllMySat

Download on the App Store